User: anonymous   Login
Location: Unspecified
(0.0000°N, 0.0000°E)
Time: 21:18:18
(UTC+00:00)
Language:

S80/T - Orbit

View from above orbital plane
View from above orbital plane
View from above satellite
View from above satellite

Ground track
Ground track

The orbit data is extracted from the following two-line orbital elements,

1 22078U 92052C   17141.91624182 -.00000053 +00000-0 +35017-4 0  9993
2 22078 066.0864 012.1134 0009431 335.2978 024.7588 12.86786826164118
Epoch (UTC): 21 May 2017 21:59:23
Eccentricity: 0.0009431
inclination: 66.0864°
perigee height: 1307 km
apogee height: 1321 km
right ascension of ascending node: 12.1134°
argument of perigee: 335.2978°
revolutions per day: 12.86786826
mean anomaly at epoch: 24.7588°
orbit number at epoch: 16411

The dashed part of the orbit path shows where the satellite is in the earth's shadow,  

DLR